Погода в Житомире

Хотите узнать прогноз погоды в Житомире? Тогда Вам сюда: Погода в Житомире

Поиск расширенной информации на нашем сайте:

Полезная информация:

Новости сайта



02.01.2020
Опубликован Долгосрочный прогноз погоды по городам России и ближнего зарубежья на январь 2020 года.
Карты: Прогноз на январь и февраль 2020 года, Сравнение прогнозируемой аномалии приземной температуры воздуха на январь 2020 года по разным моделям.




Погода в Житомире - сегодня

Время (UTC), дата Ветер
(°,м/с) 
Видим.   Явления Облачность Т
(°С)
Тd
(°С)
f(%) Тe
(°С)
Pmin
(гПа)
dP
(гПа)
Po
(мм)
O2
(г/м3)
Тmin Tmax R s Состояние
почвы
03 19.01.20 230 (ЮЗ) 4000 м  дымка  10/10 270 м 
[St]
-1.9 -3.4 89 -1  1028.6  0.2  751  305           
06 19.01.20 180 (Ю) 4000 м  дымка  10/10 330 м 
[St]
-1.9 -3.4 89 -1  1029.4  0.8  751  305  -2         
09 19.01.20 тихо ()   4000 м  дымка  10/10 360 м 
[St]
-1.9 -3.7 87 -2  1031.1  1.6  752  306           
12 19.01.20 тихо ()   10 км    10/10 400 м 
[St]
-1.7 -4.1 84 -2  1031.5  0.4  753  306           
15 19.01.20 тихо ()   10 км    10/10 400 м 
[St]
-1.7 -3.8 86 -2  1033.2  1.7  754  306           
18 19.01.20 010 (С) 10 км    10/10 400 м 
[St]
-1.9 -4 86 -1  1035.1  1.8  755  307    -1.2       
21 19.01.20 350 (С) 10 км    10/10 360 м 
[St]
-2.1 -4.6 83 -2  1036.5  1.4  756  308           
00 20.01.20 360 (С) 10 км    10/10 400 м 
[St]
-2.3 -4.9 82 -2  1037.9  1.3  757  308           
03 20.01.20 тихо ()   10 км    10/10 500 м 
[Sc]
-2.1 -4.6 83 -2  1038.7  0.8  758  308           
06 20.01.20 300 (СЗ) 4000 м  снежные зёрна  10/10 210 м 
[St]
-1.9 -2.8 94 -1  1039.9  1.2  759  308  -2.4    0.0     
09 20.01.20 330 (СЗ) 4000 м  в посл. час морось{снег}  10/10 240 м 
[St]
-0.8 -1.5 95 1040.9  1.1  760  307           
12 20.01.20 320 (СЗ) 4000 м  дымка{снег}  10/10 240 м 
[St]
+0.4 -0.7 92 +1  1040.4  -0.4  759  306      0.0     
15 20.01.20 300 (СЗ) 10 км  {снег}  10/10 570 м 
[Sc]
+0.6 -2.7 79 +1  1040  -0.3  759  306           
18 20.01.20 310 (СЗ) 10 км  {снег}  10/10 480 м 
[Sc]
+1 -1 86 -1  1040.1  0.1  759  305    +1  0.0     
21 20.01.20 310 (СЗ) 10 км    10/10 500 м 
[Sc]
+1 -2.2 79 -1  1039.2  -0.9  758  305           
00 21.01.20 290 (З) 10 км    10/10 540 м 
[Sc]
+0.6 -2.7 79 -1  1037.4  -1.8  757  305           
03 21.01.20 290 (З) 10 км    10/10 500 м 
[Sc]
+0.3 -2.7 80 -1  1035.4  -2  756  304           
06 21.01.20 280 (З) 10 км    9/9 500 м кучево-дожд. 
[Cb cap]
+0.3 -2.6 81 -1  1033.7  -1.6  754  304  +0         
09 21.01.20 280 (З) 10 км    8/0 средняя, верхняя 
[Ac trans|Ci fib]
+2.4 -3.9 63 1031.3  -2.1  753  301           
12 21.01.20 290 (З) 10 км    3/0 средняя 
[Ac trans]
+4.4 -3.8 55 +2  1028.1  -3  751  298           
15 21.01.20 280 (З) 10 км    10/5 660 м средняя, верхняя 
[Sc|Ac trans|Cc]
+3.6 -2.4 65 +2  1026.3  -1.8  749  298           
18 21.01.20 300 (СЗ) 10 км    9/6 630 м средняя 
[Sc|Ac trans]
+3.4 -2.6 65 +2  1025.6  -0.7  749  298    +4.9       
21 21.01.20 300 (СЗ) 10 км    4/0 верхняя 
[Ci fib]
+3.2 -3.6 61 +3  1025.2  -0.4  748  298           
00 22.01.20 280 (З) 10 км    9/0 верхняя 
[Ci]
+2.3 -2.6 70 +1  1023.4  -1.8  747  299           
03 22.01.20 290 (З) 10 км    10/10 480 м 
[Sc]
+1.9 -1.5 78 1021.1  -2.3  745  298           
Время (UTC), дата Ветер
(°,м/с) 
Видим.   Явления Облачность Т
(°С)
Тd
(°С)
f(%) Тe
(°С)
Pmin
(гПа)
dP
(гПа)
Po
(мм)
O2
(г/м3)
Тmin Tmax R s Состояние
почвы

Для получения пояснительной информации подведите курсор к названию столбца.

ПОГОДА в Житомире - архив

Всё, что Вы хотите узнать о погоде в Житомире - удобно и подробно!

Выберите нужную дату (начиная с 1 января 2019* года) и нажмите кнопку "Найти".
Будут отображены архивные сводки погоды по пункту Житомир, начиная с указанной даты.


Отображать данные в формате CSV (для использования в таблицах Excel)


Внимание! Наш архив погоды предназначен исключительно для личного некоммерческого использования в познавательных целях. Если Вам необходимы официальные справки о состоянии погоды (для производственных, юридических, коммерческих и т.п. целей), обращайтесь в органы Росгидромета.

*Примечание: данная дата относится к архиву по метеостанциям СССР (Россия, СНГ, Балтия).
Архив по метеостанциям Зарубежной Европы и Азии (кроме Китая) хранится 10 дней, по другим регионам земного шара (Китай, Африка, Америка, Австралия, Океания) - 1 день.

Житомир - район местоположения метеостанции


Название, широта, долгота, высота метеостанции:
Житомир 50.2°ш. 28.7°д. 224 м над ур. моря [Украина]

Дополнительная информация

В oтличие oт бoльшинства пoгoдных сайтoв мы публикуем пoдрoбную метеoинфoрмацию в детальнoм прoфессиoнальнoм фoрмате.

Характеристики температуры и влажнoсти вoздуха измеряются на высoте 2 м в тени вдали oт зданий и деревьев.
Скoрoсть ветра измеряется на высoте 10 м (на урoвне рoста челoвека скoрoсть ветра ниже в 1.5-2 раза). Если метеoстанция нахoдится в гoрoде или в лесу, тo скoрoсть ветра занижена на 2-4 м/с пo сравнению с oткрытым местoм. Скoрoсть ветра над акватoриями крупных рек и oзёр, а также на вершинах хoлмoв на 2-5 м/с выше, чем в oбычных услoвиях.
Атмoсфернoе давление в разных тoчках местнoсти мoжет значительнo oтличаться oт давления на метеoстанции, в зависимoсти oт услoвий рельефа (при пoдъёме на 10 м давление пoнижается примернo на 1 мм рт.ст.).